Location: Centerville
(32.8776°N, 96.6203°W)
Time: 03:27:42
(UTC+00:00)

ATLAS 3B R/B - Pass Details

Date: 17 June 2021
Orbit: 1003 x 1191 km, 63.8° (Epoch: 21 July)

Event Time Altitude Azimuth Distance (km) Brightness Sun altitude
Exits shadow 02:39:13 15° 123° (ESE) 2,421 3.9 -11.8°
Maximum altitude 02:40:46 16° 106° (ESE) 2,349 3.9 -12.0°
Drops below altitude 10° 02:44:34 10° 70° (ENE) 2,798 4.6 -12.6°
Sets 02:48:15 0° 50° (NE) 3,778 5.5 -13.2°
